OBJECT C, 62734

Orbit data source: Space-Track

You're viewing an Uncataloged Satellite

Recently launched and/or uncataloged satellites may have evolving metadata. Metadata may include but not limited to: Owner, Maufacturer, Bus, Motor, and Mission.

OBJECT C, 62734 is a satellite owned by SAST (CN) in GEO that was launched on Mon, 06 Jan 2025 UTC launched from the Xichang Space Center, China (XSC). Unknown objects in Earth's orbit typically refer to objects detected orbiting the Earth but have not yet been identified or cataloged. These objects could be anything from previously untracked satellites, spent rocket stages, debris from satellite collisions, or even natural meteoroids temporarily captured by Earth's gravity.

Not visible in the next 10 days
Identifier
62734, 2025-002C
Orbit
GEO
Country
Flag of CNCN / PRC
Related business
Manufacturer
SAST
Mission
Spacecraft
Bus & Motor
SJ21-SS, Unknown motor
Mass
~50 kg wet, ~50 kg dry
Launch date (UTC)
2025-01-06 (1 year ago)
Launch vehicle
Unknown
Launch site
Xichang Space Center, China (XSC)
Object type
Unknown
Shape & HBR
Unk, 1.1 m
Radar Cross Section
RCS unknown

Expand to show TLE details & history
Last TLE update: 4 months ago

TLE from 4 months ago
0 OBJECT C
1 62734U 25002C   25357.68695090 -.00000338  00000-0  00000-0 0  9991
2 62734   4.7042  62.5077 0043749 257.9062 145.7067  1.00174941    47
Epoch: 2025-12-23T16:29Z
TLE epoch observation values (Epoch: 2025-12-23T16:29:12.557Z)
Latitude
3.28423°
Longitude
126.52862°
Altitude
35,966.148 km
Speed
3.063 km/s
True Right ascension
07h 05m 11s
True Declination
3° 16' 51"
Sunlit
Object was in daylight at epoch
Visualization orbit readout
Latitude
Unknown
Longitude
Unknown
Altitude
Unknown
Speed
Unknown
Apparent Right ascension
Unknown
Apparent Declination
Unknown
Sunlit
N/A
Visualization observer readout
Local Sidereal Time
18:35:18
Azimuth
Unknown
Elevation
Unknown
Doppler factor
Unknown
Orbital elements
Apogee altitude
35,999.415 km
Perigee altitude
35,630.235 km
Semi-major axis
42,192.962 km
Eccentricity
0.00437
Inclination
4.7042°
RAAN
62.5077°
Arg. of periapsis
257.9062°
True anomaly
145.98789°
Mean anomaly
145.7067°
Eccentric anomaly
145.84742°
Mean motion
0.25043 °/min
Orbital period
1,437.54 mins
BSTAR
0
Loading maneuver chart data...
Computing Atmospheric mass density...
Loading historical data...
Loading historical data...
Loading historical data...
Loading historical data...
Loading historical data...
Loading historical data...
Loading historical data...
Other satellites on launch #2 in the year 2025 (2025-01-06 UTC)

Documentation

Showing up to 5 results
|